[[{"header":{"parameterUnit":"m.s-1","parameterCategory":2,"la1":30.2991,"la2":30.254,"lo1":-89.0895,"lo2":-89.0444,"dy":0.0017,"dx":0.0017,"nx":28,"ny":28,"refTime":"2025-04-02T09:00:00:Z","depth":"0","parameterNumber":2,"parameterNumberName":"U-component_of_CURRENTS"},"data":[0,0,0,0,0,0,0,0,0,0,0,0,0,0,0,0,0,0,0,0,0,0,0,0,0,0,0,0,0,0,0,0,0,0,0,0,0,0,0,0,0,0,0,0,0,0,0,0,0,0,0,0,0,0,0,0,0,0,0.291,0.291,0,0.2915,0.2915,0.2914,0.2893,0.2893,0.2892,0.2892,0.286,0.286,0.2859,0,0,0,0,0,0,0,0,0,0,0,0,0,0.2876,0.2877,0.291,0.291,0.291,0.2915,0.2915,0.2914,0.2893,0.2893,0.2892,0.2892,0.286,0.286,0.2859,0,0,0,0,0,0,0,0,0,0,0,0,0,0.2885,0.2877,0.291,0.2902,0.2902,0.2915,0.2915,0.2914,0.2893,0.2893,0.2892,0.2892,0.286,0.286,0.2859,0.2867,0,0,0.2857,0.2857,0,0,0,0,0,0,0,0,0.2884,0.2886,0.2903,0.2903,0.2902,0.2905,0.2891,0.2898,0.2894,0.2894,0.2892,0.2891,0.2873,0.2872,0.2871,0.2866,0.2864,0.2857,0.2856,0.2856,0.2856,0,0,0,0,0,0,0,0.2884,0.2886,0.291,0.2903,0.2903,0.2896,0.2897,0.2892,0.2885,0.2894,0.2893,0.2897,0.2873,0.2872,0.287,0.2864,0.2857,0.2856,0.2856,0.2856,0.2895,0.2897,0,0,0,0,0,0,0.2889,0.2885,0.2909,0.291,0.2894,0.2898,0.2898,0.2903,0.2886,0.2884,0.2898,0.2896,0.2874,0.2871,0.2869,0.2897,0.2856,0.2856,0.2855,0.2894,0.2896,0.2897,0,0,0,0,0,0,0.2888,0.2891,0.2909,0.2899,0.2901,0.2899,0.2905,0.2903,0.2907,0.2889,0.2886,0.2904,0.2873,0.287,0.2876,0.2895,0.2855,0.2855,0.2892,0.2894,0.2896,0.2941,0,0,0,0,0,0,0.2887,0.2891,0.2895,0.29,0.2902,0.2924,0.2905,0.2904,0.2911,0.2909,0.2893,0.2889,0.2872,0.2878,0.2876,0.2893,0.2854,0.289,0.2893,0.2896,0.2938,0.2945,0.2951,0,0,0,0,0,0.2886,0.2894,0.2895,0.2898,0.2909,0.2925,0.2925,0.292,0.2912,0.2919,0.2912,0.289,0.2894,0.2878,0.2875,0.2893,0.2889,0.2892,0.2896,0.2935,0.2943,0.295,0,0,0,0,0,0,0.288,0.2893,0.2894,0.2905,0.2919,0.2922,0.2928,0.2927,0.2927,0.2925,0.2904,0.2901,0.2918,0.2903,0.2886,0.2916,0.289,0.2893,0.2921,0.2929,0.2935,0.2938,0.2853,0,0,0,0,0,0.2883,0.2892,0.2906,0.2916,0.2925,0.2929,0.2935,0.2935,0.2937,0.2937,0.2926,0.2922,0.293,0.2926,0.2929,0.2938,0.2945,0.2951,0.2958,0.2963,0.2966,0.3,0.301,0.2908,0.2908,0.2908,0,0,0.2882,0.2892,0.2896,0.2916,0.2924,0.2939,0.293,0.2946,0.2957,0.2934,0.2943,0.2946,0.2941,0.2957,0.2962,0.2944,0.2999,0.2967,0.2972,0.2971,0.3005,0.3015,0.3023,0.291,0.291,0.291,0,0,0.2886,0.2899,0.2907,0.2922,0.2942,0.295,0.2959,0.297,0.2975,0.2989,0.2983,0.2999,0.2995,0.3002,0.3003,0.3047,0.3037,0.3049,0.3073,0.3107,0.3116,0.3123,0.3156,0.3166,0.3045,0.3045,0.3045,0,0.2885,0.2897,0.2913,0.2928,0.294,0.2958,0.2972,0.2986,0.2997,0.3008,0.2997,0.3025,0.3018,0.3049,0.3064,0.306,0.3078,0.3041,0.3115,0.3122,0.3129,0.3161,0.3172,0.3047,0.3047,0.3047,0.3046,0,0.2894,0.2907,0.2917,0.294,0.2959,0.2976,0.3001,0.3021,0.303,0.3042,0.3077,0.3079,0.3094,0.3101,0.3091,0.3142,0.314,0.3124,0.3093,0.3142,0.3173,0.3183,0.3051,0.305,0.3049,0.3049,0,0,0.2879,0.2914,0.2916,0.2924,0.2966,0.2976,0.3016,0.305,0.3073,0.3094,0.3125,0.3148,0.3156,0.316,0.3162,0.3187,0.3253,0.3176,0.3176,0.3204,0.3334,0.334,0.3351,0.325,0.3252,0.3254,0.334,0,0.2879,0.2896,0.2921,0.2941,0.2953,0.2992,0.3024,0.3061,0.3093,0.313,0.3158,0.3187,0.3177,0.3189,0.3219,0.3248,0.328,0.3231,0.3286,0.3288,0.3283,0.3363,0.3323,0.3397,0.335,0.3352,0.3353,0,0.2873,0.2886,0.2901,0.2936,0.2946,0.2965,0.3019,0.3053,0.3124,0.3152,0.3199,0.3223,0.3278,0.3255,0.3336,0.3307,0.3326,0.3343,0.3346,0.334,0.3312,0.3339,0.3417,0.3399,0.3368,0.3367,0.3366,0,0.2835,0.2869,0.2874,0.2886,0.2935,0.2952,0.2985,0.3055,0.309,0.3171,0.3209,0.3273,0.3313,0.3354,0.3402,0.3372,0.3491,0.3448,0.3474,0.3474,0.3445,0.344,0.3506,0.3505,0.3505,0.3505,0.3504,0,0.2817,0.2819,0.2852,0.2853,0.2869,0.292,0.2952,0.3005,0.3085,0.3132,0.3213,0.327,0.3341,0.3416,0.3437,0.3508,0.3524,0.3502,0.3507,0.3461,0.3457,0.3441,0.3412,0.3508,0.3507,0.3507,0.3506,0,0.2768,0.2792,0.2796,0.2835,0.2847,0.2857,0.292,0.295,0.3044,0.3113,0.3143,0.3283,0.3395,0.347,0.3556,0.3559,0.3539,0.3627,0.3575,0.3571,0.355,0.3525,0.3351,0.3258,0.3663,0.3664,0.3665,0,0.2741,0.274,0.2764,0.2764,0.2778,0.2802,0.2824,0.2913,0.2957,0.3116,0.3152,0.3301,0.3402,0.3564,0.3619,0.3692,0.3573,0.3671,0.3599,0.3571,0.3546,0.3311,0.3227,0.3583,0.3583,0.3583,0.3583,0,0.2695,0.2704,0.2707,0.2706,0.2715,0.2722,0.2768,0.2797,0.2914,0.2992,0.3123,0.3225,0.3434,0.3532,0.3658,0.3681,0.353,0.3671,0.3658,0.3514,0.3244,0.3151,0.3503,0.3583,0.3583,0.3583,0.3583,0.3583,0.266,0.2645,0.2651,0.264,0.2644,0.2637,0.2621,0.2694,0.2753,0.2859,0.3022,0.3158,0.3421,0.3612,0.3616,0.3663,0.352,0.361,0.3591,0.336,0.3232,0.359,0.3659,0.366,0.366,0.3661,0.3661,0,0.2609,0.2595,0.2585,0.2554,0.2518,0.2552,0.2573,0.255,0.2583,0.2756,0.2864,0.3138,0.3324,0.3507,0.3681,0.3617,0.3389,0.3554,0.3246,0.3176,0.3552,0.3519,0.3542,0.3542,0.3542,0.3542,0.3542,0.3542,0.2584,0.2546,0.2529,0.2437,0.2412,0.233,0.2322,0.232,0.2414,0.2542,0.2698,0.2872,0.3269,0.3605,0.3682,0.3596,0.3322,0.3185,0.3117,0.3477,0.3479,0.3482,0.3446,0.3454,0.3453,0.2611,0.2605,0.2601]},{"header":{"parameterUnit":"m.s-1","parameterCategory":2,"la1":30.2991,"la2":30.254,"lo1":-89.0895,"lo2":-89.0444,"dy":0.0017,"dx":0.0017,"nx":28,"ny":28,"refTime":"2025-04-02T09:00:00:Z","depth":"0","parameterNumber":3,"parameterNumberName":"V-component_of_CURRENTS"},"data":[0,0,0,0,0,0,0,0,0,0,0,0,0,0,0,0,0,0,0,0,0,0,0,0,0,0,0,0,0,0,0,0,0,0,0,0,0,0,0,0,0,0,0,0,0,0,0,0,0,0,0,0,0,0,0,0,0,0,0.0189,0.0189,0,0.0111,0.011,0.0109,0.0061,0.0061,0.0061,0.0061,-0.0042,-0.0045,-0.0047,0,0,0,0,0,0,0,0,0,0,0,0,0,0.0248,0.0247,0.0189,0.0189,0.0188,0.0111,0.011,0.0109,0.0061,0.0061,0.0061,0.0061,-0.0041,-0.0044,-0.0048,0,0,0,0,0,0,0,0,0,0,0,0,0,0.02,0.0247,0.019,0.0156,0.0152,0.0111,0.011,0.0108,0.0061,0.0061,0.0061,0.0061,-0.004,-0.0044,-0.0048,-0.007,0,0,-0.006,-0.0062,0,0,0,0,0,0,0,0,0.0203,0.0198,0.0162,0.0158,0.0154,0.0097,0.0093,0.0048,0.0061,0.0094,0.0061,0.0061,0.0003,-0.0004,-0.0021,-0.0075,-0.0079,-0.0061,-0.0063,-0.0065,-0.0066,0,0,0,0,0,0,0,0.0206,0.02,0.0157,0.0161,0.0156,0.0128,0.0121,0.0084,0.0049,0.0091,0.0088,0.0082,0.0001,-0.0017,-0.0023,-0.0081,-0.0061,-0.0064,-0.0067,-0.0068,-0.0152,-0.0152,0,0,0,0,0,0,0.0222,0.0204,0.0159,0.0155,0.018,0.0127,0.012,0.0114,0.005,0.004,0.0082,0.008,-0.001,-0.0019,-0.0027,-0.0038,-0.0065,-0.0069,-0.0071,-0.0152,-0.0152,-0.0152,0,0,0,0,0,0,0.0223,0.0219,0.0162,0.0179,0.017,0.0127,0.0121,0.0113,0.0099,0.0043,0.0033,0.0078,-0.001,-0.0022,-0.0051,-0.0043,-0.007,-0.0074,-0.0153,-0.0152,-0.0152,-0.0071,0,0,0,0,0,0,0.0225,0.022,0.0222,0.018,0.0169,0.0147,0.0121,0.0112,0.0096,0.0093,0.0036,0.0026,-0.0011,-0.0045,-0.0055,-0.0049,-0.0077,-0.0153,-0.0152,-0.0152,-0.0074,-0.0068,-0.0063,0,0,0,0,0,0.0228,0.0234,0.0223,0.0217,0.0174,0.0147,0.0139,0.0107,0.0096,0.0094,0.0058,0.0028,-0.0051,-0.0048,-0.006,-0.0054,-0.0153,-0.0152,-0.0152,-0.0076,-0.0069,-0.0063,0,0,0,0,0,0,0.0261,0.0229,0.0215,0.0212,0.0186,0.014,0.0136,0.0114,0.0083,0.0082,0.0029,0.0017,-0.0007,-0.0043,-0.0039,-0.0079,-0.0107,-0.0109,-0.0045,-0.0039,-0.0034,-0.001,-0.008,0,0,0,0,0,0.027,0.0268,0.0231,0.0229,0.022,0.018,0.0166,0.0145,0.0112,0.0098,0.0059,0.0019,-0.0016,-0.0035,-0.0073,-0.0094,-0.0125,-0.0099,-0.0094,-0.0089,-0.0079,-0.0118,-0.0115,-0.0151,-0.0151,-0.0151,0,0,0.0282,0.0266,0.0264,0.0236,0.0215,0.021,0.0171,0.0157,0.0155,0.0091,0.0079,0.0036,-0.0018,-0.004,-0.0054,-0.0068,-0.0095,-0.0088,-0.0083,-0.0076,-0.0117,-0.0114,-0.0111,-0.015,-0.015,-0.0151,0,0,0.0312,0.0293,0.0302,0.0286,0.0261,0.0237,0.0238,0.0198,0.0182,0.0159,0.0117,0.0085,0.0028,-0.0004,-0.0029,-0.0017,-0.0065,-0.0033,0.0014,-0.0024,-0.0021,-0.0019,-0.0048,-0.0049,-0.003,-0.0029,-0.0029,0,0.033,0.0335,0.0301,0.0307,0.0303,0.0256,0.0268,0.0243,0.0199,0.0193,0.0167,0.0093,0.0047,0.0023,0.0026,-0.0003,-0.0031,-0.0004,-0.0015,-0.0014,-0.0013,-0.0043,-0.0045,-0.0026,-0.0026,-0.0026,-0.0027,0,0.0364,0.0369,0.0375,0.0369,0.036,0.0362,0.0328,0.0318,0.0291,0.0263,0.0232,0.0166,0.0125,0.0101,0.0066,0.0051,0.0028,-0.0002,-0.0026,-0.0004,-0.0038,-0.0041,-0.002,-0.0021,-0.0022,-0.0023,0,0,0.0406,0.0401,0.0404,0.0418,0.0396,0.0395,0.0395,0.0382,0.0391,0.0334,0.0336,0.0265,0.0228,0.0198,0.0145,0.0108,0.0088,0.0062,0.0059,0.0045,0.0011,0.0006,0.0001,0.0055,0.0055,0.0054,-0.0012,0,0.0447,0.0478,0.0461,0.0495,0.0511,0.0478,0.0487,0.0468,0.044,0.0427,0.0356,0.0331,0.0265,0.0248,0.0201,0.0118,0.0081,0.0109,-0.0018,-0.0021,-0.002,-0.0003,0.0048,-0.0006,-0.0016,-0.0017,-0.0017,0,0.0489,0.0506,0.0544,0.0569,0.0574,0.0583,0.0595,0.0597,0.0564,0.0538,0.0495,0.044,0.0383,0.0319,0.0194,0.0215,0.0125,0.0053,0.0048,0.0014,-0.0033,-0.0033,-0.0013,-0.015,-0.0023,-0.0023,-0.0022,0,0.0542,0.0569,0.0605,0.061,0.0622,0.0637,0.0645,0.0631,0.0651,0.0609,0.0613,0.0527,0.0494,0.0369,0.0226,0.0209,0.0086,0.0041,-0.0051,-0.0052,-0.0048,-0.0049,-0.0165,-0.0049,-0.0048,-0.0048,-0.0048,0,0.0593,0.0624,0.0631,0.0651,0.0705,0.0694,0.0741,0.0733,0.0738,0.0773,0.0677,0.0686,0.0505,0.0416,0.0264,0.0108,0.0114,-0.0033,-0.0067,-0.0019,-0.0016,-0.0167,-0.025,-0.0051,-0.005,-0.005,-0.0049,0,0.0641,0.0644,0.069,0.0715,0.0728,0.0766,0.0814,0.0852,0.0839,0.0881,0.0878,0.0811,0.07,0.0516,0.0322,0.0175,-0.0069,-0.0048,0.0028,0.0004,-0.0211,-0.029,-0.0451,-0.0555,-0.0158,-0.0159,-0.0159,0,0.0668,0.0695,0.074,0.0775,0.0786,0.0837,0.088,0.0896,0.0947,0.0967,0.1004,0.0923,0.0894,0.0613,0.0347,0.0093,-0.0074,-0.0052,-0.0083,-0.0207,-0.0321,-0.0386,-0.0468,-0.0048,-0.0047,-0.0047,-0.0047,0,0.0723,0.0733,0.0769,0.0839,0.0889,0.0955,0.1021,0.1081,0.1112,0.1164,0.1224,0.1212,0.0962,0.0761,0.0407,0.0206,-0.0144,-0.0052,-0.0203,-0.0257,-0.0313,-0.0433,-0.0021,-0.0043,-0.0043,-0.0043,-0.0043,-0.0044,0.0764,0.0797,0.0841,0.0909,0.0974,0.1063,0.1132,0.1222,0.133,0.1434,0.1414,0.1468,0.1162,0.0708,0.0387,-0.0096,-0.0135,-0.0228,-0.0316,-0.0374,-0.0464,-0.0038,-0.0086,-0.0087,-0.0087,-0.0088,-0.0088,0,0.0813,0.0846,0.0911,0.0988,0.1067,0.1093,0.1222,0.1308,0.1454,0.1601,0.1676,0.1663,0.124,0.0781,0.0147,-0.0247,-0.0444,-0.0474,-0.0554,-0.0633,-0.026,-0.0244,-0.0301,-0.0301,-0.0301,-0.03,-0.03,-0.03,0.084,0.09,0.0926,0.1049,0.111,0.1223,0.1303,0.1448,0.1597,0.183,0.1978,0.2062,0.1851,0.0594,-0.0252,-0.0482,-0.0784,-0.0838,-0.1032,-0.0757,-0.0741,-0.0725,-0.073,-0.0888,-0.0889,-0.1352,-0.1356,-0.136]}],[{"header":{"parameterUnit":"m.s-1","parameterCategory":2,"la1":30.2991,"la2":30.254,"lo1":-89.0895,"lo2":-89.0444,"dy":0.0017,"dx":0.0017,"nx":28,"ny":28,"refTime":"2025-04-02T09:00:00:Z","depth":"2","parameterNumber":2,"parameterNumberName":"U-component_of_CURRENTS"},"data":[0,0,0,0,0,0,0,0,0,0,0,0,0,0,0,0,0,0,0,0,0,0,0,0,0,0,0,0,0,0,0,0,0,0,0,0,0,0,0,0,0,0,0,0,0,0,0,0,0,0,0,0,0,0,0,0,0,0,0.2892,0.2892,0,0.2898,0.2898,0.2898,0.288,0.2879,0.2879,0.2878,0.2851,0.285,0.285,0,0,0,0,0,0,0,0,0,0,0,0,0,0.2858,0.2858,0.2892,0.2892,0.2892,0.2898,0.2898,0.2898,0.288,0.2879,0.2879,0.2878,0.2851,0.285,0.285,0,0,0,0,0,0,0,0,0,0,0,0,0,0.2867,0.2858,0.2892,0.2886,0.2885,0.2898,0.2898,0.2898,0.288,0.2879,0.2879,0.2878,0.2851,0.285,0.285,0.2857,0,0,0.2848,0.2848,0,0,0,0,0,0,0,0,0.2867,0.2868,0.2886,0.2886,0.2886,0.2889,0.2876,0.2883,0.288,0.288,0.2878,0.2878,0.2862,0.2861,0.286,0.2856,0.2855,0.2848,0.2848,0.2847,0.2847,0,0,0,0,0,0,0,0.2866,0.2868,0.2892,0.2887,0.2886,0.288,0.2881,0.2877,0.2872,0.2879,0.2879,0.2883,0.2861,0.2861,0.286,0.2854,0.2848,0.2847,0.2847,0.2847,0.2888,0.2889,0,0,0,0,0,0,0.2871,0.2867,0.2892,0.2893,0.2877,0.2882,0.2882,0.2887,0.2872,0.2871,0.2883,0.2882,0.2862,0.286,0.2859,0.2888,0.2847,0.2847,0.2846,0.2887,0.2888,0.289,0,0,0,0,0,0,0.287,0.2873,0.2892,0.2882,0.2884,0.2883,0.2889,0.2887,0.2892,0.2876,0.2873,0.289,0.2862,0.2859,0.2867,0.2886,0.2846,0.2846,0.2885,0.2887,0.2889,0.2934,0,0,0,0,0,0,0.2869,0.2872,0.2877,0.2882,0.2885,0.2906,0.2889,0.2888,0.2897,0.2895,0.2881,0.2877,0.2861,0.2868,0.2866,0.2885,0.2845,0.2883,0.2886,0.2888,0.2931,0.2937,0.2943,0,0,0,0,0,0.2868,0.2875,0.2878,0.2881,0.2892,0.2907,0.2908,0.2904,0.2898,0.2905,0.2899,0.2878,0.2884,0.2869,0.2866,0.2885,0.2882,0.2885,0.2888,0.2928,0.2936,0.2943,0,0,0,0,0,0,0.2862,0.2875,0.2877,0.2888,0.2902,0.2905,0.2912,0.2912,0.2913,0.2912,0.2892,0.2889,0.2907,0.2893,0.2876,0.2908,0.2882,0.2885,0.2913,0.292,0.2926,0.2929,0.2845,0,0,0,0,0,0.2865,0.2875,0.2888,0.2899,0.2907,0.2913,0.2918,0.292,0.2923,0.2923,0.2914,0.2911,0.2919,0.2916,0.292,0.293,0.2937,0.2944,0.295,0.2955,0.2958,0.2992,0.3001,0.2901,0.2901,0.2901,0,0,0.2865,0.2875,0.2879,0.2899,0.2907,0.2922,0.2914,0.2931,0.2942,0.292,0.2931,0.2934,0.293,0.2947,0.2954,0.2935,0.2991,0.2959,0.2964,0.2964,0.2996,0.3006,0.3015,0.2903,0.2903,0.2902,0,0,0.2869,0.2882,0.289,0.2905,0.2926,0.2934,0.2943,0.2955,0.2961,0.2975,0.2971,0.2987,0.2985,0.2992,0.2994,0.3038,0.3029,0.304,0.3065,0.3098,0.3106,0.3114,0.3146,0.3156,0.3036,0.3036,0.3036,0,0.2869,0.2881,0.2896,0.2911,0.2924,0.2942,0.2956,0.297,0.2983,0.2995,0.2984,0.3013,0.3008,0.3039,0.3054,0.3051,0.3068,0.3033,0.3106,0.3113,0.312,0.3151,0.3161,0.3039,0.3039,0.3038,0.3038,0,0.2877,0.2891,0.2901,0.2925,0.2943,0.2961,0.2986,0.3006,0.3016,0.3028,0.3065,0.3068,0.3083,0.3091,0.3082,0.3132,0.313,0.3115,0.3084,0.3132,0.3162,0.3172,0.3043,0.3042,0.3041,0.304,0,0,0.2863,0.2898,0.29,0.2908,0.2951,0.2961,0.3,0.3034,0.3058,0.308,0.3111,0.3136,0.3145,0.3149,0.3151,0.3176,0.3241,0.3166,0.3166,0.3193,0.3321,0.3323,0.3333,0.3239,0.3241,0.3242,0.3327,0,0.2863,0.2881,0.2906,0.2927,0.2938,0.2977,0.3009,0.3046,0.3078,0.3115,0.3144,0.3174,0.3165,0.3178,0.3208,0.3236,0.3268,0.322,0.3274,0.3276,0.3267,0.3345,0.3048,0.3099,0.3336,0.3338,0.3339,0,0.2858,0.2872,0.2887,0.2922,0.2932,0.2951,0.3006,0.304,0.311,0.3138,0.3185,0.321,0.3265,0.3243,0.3322,0.3294,0.3314,0.333,0.3333,0.3323,0.3295,0.3087,0.3107,0.3355,0.3354,0.3353,0.3352,0,0.2821,0.2855,0.2861,0.2873,0.2922,0.294,0.2973,0.3042,0.3077,0.3158,0.3195,0.326,0.33,0.334,0.3388,0.3359,0.3474,0.3433,0.3454,0.3454,0.3207,0.3182,0.3489,0.3488,0.3488,0.3488,0.3488,0,0.2804,0.2807,0.284,0.2842,0.2858,0.2909,0.2942,0.2995,0.3074,0.3121,0.3201,0.3256,0.3328,0.3401,0.3421,0.3488,0.3506,0.3482,0.3485,0.3217,0.3194,0.3411,0.3401,0.3491,0.349,0.349,0.3489,0,0.2756,0.278,0.2785,0.2825,0.2837,0.2848,0.2912,0.2941,0.3034,0.3103,0.3134,0.3271,0.3379,0.3453,0.3536,0.3538,0.359,0.3602,0.3293,0.3261,0.3534,0.3526,0.3631,0.3632,0.3633,0.3633,0.3634,0,0.273,0.2729,0.2754,0.2755,0.2769,0.2795,0.2817,0.2905,0.295,0.3105,0.314,0.3286,0.3378,0.3534,0.3539,0.3597,0.3644,0.3371,0.3266,0.3561,0.3554,0.3544,0.3534,0.2948,0.2943,0.2938,0.2935,0,0.2685,0.2694,0.2698,0.2699,0.2708,0.2716,0.2763,0.2791,0.2906,0.2979,0.3105,0.3198,0.3357,0.3306,0.3406,0.339,0.334,0.3294,0.3671,0.2982,0.293,0.2919,0.2929,0.2898,0.2902,0.2904,0.2906,0.2908,0.265,0.2636,0.2643,0.2633,0.2639,0.2632,0.2616,0.2672,0.2724,0.2791,0.2962,0.3003,0.3081,0.3095,0.3033,0.2985,0.3219,0.3071,0.3077,0.3089,0.3019,0.2975,0.2937,0.294,0.2944,0.2947,0.2949,0,0.259,0.2587,0.2578,0.2549,0.2504,0.2549,0.2568,0.2519,0.2524,0.2621,0.2687,0.2536,0.2538,0.2613,0.2489,0.2541,0.2433,0.244,0.2253,0.2295,0.2332,0.2215,0.1923,0.1919,0.1916,0.1913,0,0,0.2564,0.2522,0.2505,0.2411,0.2396,0.2301,0.2292,0.2248,0.2271,0.2234,0.223,0.2402,0.2554,0.2187,0.2169,0.2024,0.2125,0.1941,0.2773,0.2596,0.2627,0.2723,0.2598,0,0,0,0,0]},{"header":{"parameterUnit":"m.s-1","parameterCategory":2,"la1":30.2991,"la2":30.254,"lo1":-89.0895,"lo2":-89.0444,"dy":0.0017,"dx":0.0017,"nx":28,"ny":28,"refTime":"2025-04-02T09:00:00:Z","depth":"2","parameterNumber":3,"parameterNumberName":"V-component_of_CURRENTS"},"data":[0,0,0,0,0,0,0,0,0,0,0,0,0,0,0,0,0,0,0,0,0,0,0,0,0,0,0,0,0,0,0,0,0,0,0,0,0,0,0,0,0,0,0,0,0,0,0,0,0,0,0,0,0,0,0,0,0,0,0.0139,0.0139,0,0.0062,0.0061,0.006,0.0013,0.0013,0.0013,0.0013,-0.0089,-0.0091,-0.0094,0,0,0,0,0,0,0,0,0,0,0,0,0,0.0197,0.0196,0.014,0.0139,0.0138,0.0062,0.0061,0.006,0.0013,0.0013,0.0013,0.0013,-0.0088,-0.0091,-0.0094,0,0,0,0,0,0,0,0,0,0,0,0,0,0.0149,0.0196,0.014,0.0107,0.0103,0.0062,0.0061,0.0059,0.0013,0.0013,0.0013,0.0013,-0.0087,-0.0091,-0.0094,-0.0117,0,0,-0.0107,-0.0108,0,0,0,0,0,0,0,0,0.0152,0.0147,0.0112,0.0109,0.0105,0.0049,0.0044,-0.0,0.0013,0.0046,0.0013,0.0013,-0.0044,-0.0051,-0.0068,-0.0121,-0.0126,-0.0107,-0.0109,-0.0111,-0.0112,0,0,0,0,0,0,0,0.0156,0.015,0.0107,0.0112,0.0107,0.0079,0.0072,0.0035,0.0001,0.0043,0.004,0.0034,-0.0046,-0.0064,-0.007,-0.0127,-0.0107,-0.011,-0.0113,-0.0114,-0.0197,-0.0197,0,0,0,0,0,0,0.0171,0.0153,0.011,0.0105,0.013,0.0078,0.007,0.0065,0.0002,-0.0008,0.0034,0.0032,-0.0057,-0.0066,-0.0074,-0.0084,-0.0111,-0.0115,-0.0117,-0.0197,-0.0197,-0.0197,0,0,0,0,0,0,0.0173,0.0168,0.0113,0.0129,0.012,0.0078,0.0072,0.0064,0.0051,-0.0005,-0.0015,0.003,-0.0057,-0.0069,-0.0098,-0.0089,-0.0116,-0.012,-0.0197,-0.0197,-0.0197,-0.0117,0,0,0,0,0,0,0.0175,0.0169,0.0172,0.013,0.012,0.0098,0.0072,0.0063,0.0048,0.0044,-0.0012,-0.0021,-0.0058,-0.0091,-0.0102,-0.0095,-0.0123,-0.0198,-0.0197,-0.0197,-0.0119,-0.0114,-0.0109,0,0,0,0,0,0.0177,0.0184,0.0172,0.0167,0.0124,0.0098,0.009,0.0058,0.0048,0.0046,0.0011,-0.0019,-0.0097,-0.0094,-0.0106,-0.0101,-0.0198,-0.0197,-0.0197,-0.0122,-0.0115,-0.0109,0,0,0,0,0,0,0.021,0.0178,0.0165,0.0162,0.0136,0.0091,0.0088,0.0065,0.0035,0.0034,-0.0018,-0.003,-0.0053,-0.0089,-0.0085,-0.0124,-0.0152,-0.0154,-0.0091,-0.0085,-0.008,-0.0057,-0.0126,0,0,0,0,0,0.022,0.0217,0.018,0.018,0.017,0.0131,0.0117,0.0096,0.0064,0.005,0.0012,-0.0028,-0.0063,-0.0081,-0.0119,-0.0139,-0.0171,-0.0145,-0.0139,-0.0134,-0.0125,-0.0164,-0.0161,-0.0195,-0.0195,-0.0195,0,0,0.0232,0.0216,0.0214,0.0187,0.0165,0.0161,0.0122,0.0109,0.0106,0.0044,0.0031,-0.0011,-0.0064,-0.0086,-0.01,-0.0113,-0.014,-0.0134,-0.0129,-0.0122,-0.0163,-0.016,-0.0157,-0.0195,-0.0195,-0.0195,0,0,0.0261,0.0243,0.0252,0.0236,0.0211,0.0187,0.0188,0.0149,0.0133,0.0111,0.007,0.0038,-0.0018,-0.005,-0.0075,-0.0063,-0.011,-0.0078,-0.0033,-0.0071,-0.0068,-0.0066,-0.0094,-0.0095,-0.0075,-0.0075,-0.0075,0,0.028,0.0284,0.0251,0.0256,0.0253,0.0206,0.0218,0.0193,0.015,0.0144,0.0119,0.0045,0.0,-0.0024,-0.002,-0.0049,-0.0077,-0.005,-0.0062,-0.0061,-0.006,-0.009,-0.0092,-0.0071,-0.0071,-0.0072,-0.0072,0,0.0313,0.0318,0.0324,0.0318,0.0309,0.031,0.0277,0.0267,0.0241,0.0213,0.0183,0.0118,0.0077,0.0054,0.0019,0.0004,-0.0019,-0.0049,-0.0073,-0.0051,-0.0085,-0.0088,-0.0065,-0.0067,-0.0068,-0.0069,0,0,0.0355,0.0349,0.0353,0.0366,0.0344,0.0343,0.0343,0.0329,0.0338,0.0282,0.0283,0.0214,0.0178,0.0147,0.0096,0.0059,0.0039,0.0015,0.0011,-0.0003,-0.0038,-0.0043,-0.0049,0.0006,0.0006,0.0006,-0.0061,0,0.0395,0.0425,0.0408,0.0441,0.0456,0.0424,0.0432,0.0414,0.0385,0.0373,0.0302,0.0278,0.0213,0.0197,0.0151,0.0069,0.0032,0.006,-0.0066,-0.007,-0.0069,-0.0052,-0.005,-0.0108,-0.0065,-0.0065,-0.0066,0,0.0436,0.0452,0.0489,0.0513,0.0517,0.0526,0.0538,0.0539,0.0506,0.0481,0.0438,0.0385,0.0328,0.0266,0.0142,0.0163,0.0074,0.0003,-0.0002,-0.0036,-0.0082,-0.0127,-0.0117,-0.0073,-0.0072,-0.0072,-0.0071,0,0.0488,0.0514,0.0549,0.0553,0.0565,0.058,0.0587,0.0573,0.0592,0.0551,0.0555,0.0469,0.0437,0.0313,0.0173,0.0157,0.0034,-0.0011,-0.0101,-0.0103,-0.014,-0.0144,-0.01,-0.01,-0.0099,-0.0099,-0.0099,0,0.0537,0.0568,0.0575,0.0594,0.0647,0.0636,0.0682,0.0674,0.0678,0.0711,0.0617,0.0625,0.0447,0.0359,0.021,0.0055,0.006,-0.0084,-0.0118,-0.0112,-0.0112,-0.0116,-0.0117,-0.0102,-0.0101,-0.0101,-0.01,0,0.0586,0.0588,0.0633,0.0657,0.067,0.0708,0.0755,0.0791,0.0778,0.0819,0.0816,0.0749,0.0638,0.0457,0.0265,0.0119,-0.0041,-0.0101,-0.0073,-0.0102,-0.0164,-0.016,-0.0209,-0.0209,-0.021,-0.021,-0.0211,0,0.0612,0.0638,0.0682,0.0717,0.0728,0.0778,0.0821,0.0836,0.0885,0.0903,0.0938,0.0858,0.0823,0.0544,0.027,0.0016,-0.0021,-0.0156,-0.0192,-0.0146,-0.0174,-0.0169,-0.0165,-0.0214,-0.0214,-0.0215,-0.0215,0,0.0666,0.0676,0.0711,0.0781,0.0831,0.0894,0.0959,0.1017,0.1046,0.1092,0.1147,0.113,0.0872,0.0626,0.0272,0.0087,-0.0116,-0.017,-0.0135,-0.0177,-0.0154,-0.018,-0.0175,-0.0218,-0.0217,-0.0217,-0.0217,-0.0217,0.0706,0.0738,0.0782,0.085,0.0914,0.1001,0.1068,0.1133,0.1231,0.1281,0.1286,0.124,0.097,0.0518,0.0215,-0.0126,-0.0108,-0.0245,-0.0243,-0.0241,-0.0221,-0.0199,-0.0267,-0.0267,-0.0267,-0.0267,-0.0267,0,0.0744,0.0787,0.0851,0.0928,0.0992,0.1031,0.1156,0.1193,0.1299,0.1352,0.1382,0.1115,0.0864,0.0548,0.0052,-0.0227,-0.0266,-0.0328,-0.0314,-0.0308,-0.0304,-0.0287,-0.0351,-0.0352,-0.0353,-0.0354,0,0,0.0768,0.0823,0.0848,0.0961,0.1031,0.1108,0.1185,0.1243,0.1292,0.1317,0.1308,0.1283,0.0949,0.0575,0.0198,-0.0078,-0.014,-0.0147,-0.0052,0.0012,0.0019,-0.0232,-0.0195,0,0,0,0,0]}],[{"header":{"parameterUnit":"m.s-1","parameterCategory":2,"la1":30.2991,"la2":30.254,"lo1":-89.0895,"lo2":-89.0444,"dy":0.0017,"dx":0.0017,"nx":28,"ny":28,"refTime":"2025-04-02T09:00:00:Z","depth":"4","parameterNumber":2,"parameterNumberName":"U-component_of_CURRENTS"},"data":[0,0,0,0,0,0,0,0,0,0,0,0,0,0,0,0,0,0,0,0,0,0,0,0,0,0,0,0,0,0,0,0,0,0,0,0,0,0,0,0,0,0,0,0,0,0,0,0,0,0,0,0,0,0,0,0,0,0,0.1836,0.1837,0,0.1899,0.19,0.19,0.1954,0.1954,0.1955,0.1956,0.203,0.2031,0.2033,0,0,0,0,0,0,0,0,0,0,0,0,0,0.1746,0.1748,0.1836,0.1837,0.1838,0.1899,0.19,0.19,0.1954,0.1954,0.1955,0.1956,0.203,0.2031,0.2033,0,0,0,0,0,0,0,0,0,0,0,0,0,0.1793,0.1748,0.1836,0.1873,0.1877,0.1899,0.19,0.1901,0.1953,0.1955,0.1956,0.1957,0.2029,0.2031,0.2033,0.2023,0,0,0.2039,0.204,0,0,0,0,0,0,0,0,0.1791,0.1796,0.1866,0.187,0.1875,0.1921,0.1896,0.1943,0.1953,0.1923,0.1956,0.1957,0.1995,0.2,0.2007,0.2027,0.203,0.2039,0.204,0.2041,0.2042,0,0,0,0,0,0,0,0.1787,0.1794,0.1859,0.1867,0.1872,0.1881,0.1889,0.1904,0.1951,0.1925,0.193,0.1939,0.1997,0.2005,0.2009,0.2031,0.2039,0.2041,0.2042,0.2043,0.2166,0.2168,0,0,0,0,0,0,0.1783,0.1791,0.1857,0.1861,0.1836,0.1882,0.1891,0.1904,0.1951,0.1959,0.1938,0.1941,0.2001,0.2007,0.2012,0.2109,0.2041,0.2043,0.2044,0.2164,0.2167,0.2169,0,0,0,0,0,0,0.178,0.1788,0.1855,0.1829,0.1838,0.1883,0.1897,0.1905,0.1952,0.196,0.1969,0.1982,0.2002,0.2009,0.2064,0.2108,0.2044,0.2045,0.2162,0.2165,0.2168,0.2235,0,0,0,0,0,0,0.1778,0.1787,0.1813,0.1828,0.1839,0.1894,0.1896,0.1905,0.1954,0.196,0.2,0.2006,0.2003,0.2062,0.2066,0.211,0.2047,0.2159,0.2163,0.2167,0.223,0.224,0.2249,0,0,0,0,0,0.1774,0.1798,0.1814,0.1823,0.1868,0.1895,0.1902,0.1936,0.1956,0.1982,0.2015,0.2007,0.209,0.2065,0.207,0.2115,0.2157,0.2162,0.2166,0.2226,0.2239,0.2249,0,0,0,0,0,0,0.1774,0.1806,0.1824,0.1858,0.1888,0.1905,0.1939,0.1958,0.2003,0.2024,0.2029,0.2038,0.2105,0.2101,0.2073,0.2164,0.2124,0.213,0.2168,0.2179,0.2189,0.2184,0.2049,0,0,0,0,0,0.1784,0.1816,0.1842,0.1875,0.1894,0.1924,0.1948,0.1971,0.2004,0.2027,0.2054,0.2088,0.2121,0.2144,0.2169,0.2214,0.2212,0.2249,0.2258,0.2266,0.2267,0.2304,0.2317,0.2185,0.2185,0.2184,0,0,0.1794,0.1818,0.1838,0.1879,0.1908,0.1938,0.1943,0.1992,0.2027,0.2026,0.2098,0.2125,0.2142,0.2198,0.2227,0.2204,0.2306,0.2272,0.2278,0.2275,0.2311,0.2323,0.2334,0.2188,0.2187,0.2187,0,0,0.1814,0.1853,0.1882,0.1911,0.1961,0.1978,0.2001,0.2043,0.2079,0.2138,0.2154,0.2207,0.2254,0.2276,0.229,0.2364,0.2355,0.2383,0.2425,0.2462,0.2472,0.2482,0.2503,0.2514,0.2385,0.2386,0.2386,0,0.1828,0.1864,0.1895,0.1928,0.1959,0.2,0.2034,0.2071,0.213,0.2164,0.2174,0.2268,0.2287,0.2349,0.238,0.2385,0.2401,0.2379,0.2473,0.2482,0.249,0.251,0.252,0.2389,0.2389,0.2389,0.2388,0,0.1854,0.1898,0.1921,0.1975,0.2011,0.2053,0.2099,0.2153,0.2202,0.2234,0.2323,0.2354,0.2406,0.2429,0.2429,0.2506,0.2497,0.2481,0.244,0.2507,0.2524,0.2534,0.2395,0.2394,0.2392,0.2391,0,0,0.1837,0.1923,0.1935,0.1968,0.2043,0.2068,0.2143,0.2207,0.2259,0.2329,0.2395,0.2465,0.2493,0.2512,0.253,0.2564,0.2642,0.2556,0.2557,0.2569,0.2724,0.2563,0.2558,0.2649,0.2651,0.2653,0.2714,0,0.1852,0.1914,0.1957,0.2024,0.2057,0.2123,0.2182,0.2251,0.2315,0.239,0.2448,0.2518,0.2521,0.2563,0.2602,0.2636,0.2672,0.2626,0.2663,0.2664,0.2506,0.2565,0.2659,0.2721,0.2723,0.2725,0.2726,0,0.1853,0.1898,0.1964,0.2049,0.2072,0.2123,0.2224,0.2284,0.2391,0.2445,0.2526,0.2572,0.2657,0.2641,0.2732,0.2709,0.2727,0.274,0.2743,0.2571,0.2521,0.2639,0.2744,0.2742,0.2741,0.274,0.2739,0,0.1806,0.1897,0.1952,0.1983,0.2086,0.214,0.2204,0.2309,0.2368,0.2491,0.2546,0.2641,0.2705,0.275,0.2795,0.2777,0.2875,0.2845,0.2715,0.2704,0.2799,0.2788,0.2901,0.2901,0.2901,0.2901,0.29,0,0.1781,0.1828,0.1942,0.197,0.2041,0.2127,0.2212,0.229,0.2405,0.2467,0.2577,0.263,0.274,0.2805,0.2824,0.28,0.2902,0.2727,0.2709,0.2828,0.282,0.2807,0.2795,0.2903,0.2902,0.2902,0.2901,0,0.1713,0.1791,0.1858,0.198,0.2021,0.2076,0.2208,0.2261,0.2387,0.2472,0.2519,0.2654,0.2731,0.2812,0.289,0.2819,0.2821,0.2787,0.2919,0.2908,0.2617,0.2609,0.2632,0.2627,0.2622,0.2619,0.2616,0,0.1679,0.1711,0.1848,0.1889,0.1951,0.2045,0.2103,0.2238,0.229,0.2456,0.2481,0.2613,0.2683,0.2661,0.276,0.2782,0.2754,0.2731,0.2657,0.2609,0.2591,0.259,0.2587,0.2609,0.2608,0.2606,0.2605,0,0.1613,0.1682,0.1739,0.1823,0.1896,0.1955,0.2051,0.207,0.2215,0.2349,0.2379,0.2417,0.2498,0.2551,0.2595,0.2604,0.2729,0.2684,0.2692,0.2623,0.2581,0.2568,0.257,0.259,0.2592,0.2594,0.2595,0,0.157,0.1591,0.1678,0.1735,0.1819,0.1838,0.1899,0.195,0.2013,0.2188,0.2193,0.2331,0.2464,0.2461,0.2499,0.25,0.2457,0.2366,0.239,0.2408,0.2308,0.222,0.2106,0,0,0,0,0,0.1513,0.1526,0.1577,0.1628,0.1704,0.1748,0.185,0.1912,0.2045,0.201,0.2092,0.2151,0.2197,0.2276,0.2233,0.2417,0.248,0.2357,0.239,0.2506,0.2524,0.2427,0,0,0,0,0,0,0.1475,0.1526,0.1539,0.1524,0.1537,0.1598,0.1654,0.1745,0.1731,0.1876,0.1916,0.2026,0.2114,0.2203,0.2195,0.2219,0.2196,0.2451,0.2445,0.2496,0.2512,0.2526,0.2433,0,0,0,0,0]},{"header":{"parameterUnit":"m.s-1","parameterCategory":2,"la1":30.2991,"la2":30.254,"lo1":-89.0895,"lo2":-89.0444,"dy":0.0017,"dx":0.0017,"nx":28,"ny":28,"refTime":"2025-04-02T09:00:00:Z","depth":"4","parameterNumber":3,"parameterNumberName":"V-component_of_CURRENTS"},"data":[0,0,0,0,0,0,0,0,0,0,0,0,0,0,0,0,0,0,0,0,0,0,0,0,0,0,0,0,0,0,0,0,0,0,0,0,0,0,0,0,0,0,0,0,0,0,0,0,0,0,0,0,0,0,0,0,0,0,0.0011,0.0011,0,-0.0038,-0.0039,-0.004,-0.0079,-0.0079,-0.0079,-0.0079,-0.0154,-0.0156,-0.0157,0,0,0,0,0,0,0,0,0,0,0,0,0,0.0039,0.0039,0.0011,0.0011,0.001,-0.0038,-0.0039,-0.004,-0.0079,-0.0079,-0.0079,-0.008,-0.0153,-0.0155,-0.0158,0,0,0,0,0,0,0,0,0,0,0,0,0,0.0011,0.0038,0.0011,-0.0014,-0.0017,-0.0038,-0.0039,-0.004,-0.0079,-0.0079,-0.0079,-0.008,-0.0153,-0.0155,-0.0158,-0.0165,0,0,-0.0166,-0.0167,0,0,0,0,0,0,0,0,0.0012,0.001,-0.001,-0.0013,-0.0016,-0.0052,-0.0057,-0.0083,-0.0078,-0.0056,-0.0079,-0.008,-0.0121,-0.0126,-0.0136,-0.0169,-0.0172,-0.0166,-0.0168,-0.0169,-0.0169,0,0,0,0,0,0,0,0.0014,0.0011,-0.001,-0.001,-0.0014,-0.0034,-0.0039,-0.0062,-0.0087,-0.0058,-0.0061,-0.0065,-0.0123,-0.0133,-0.0138,-0.0173,-0.0166,-0.0168,-0.017,-0.0171,-0.022,-0.022,0,0,0,0,0,0,0.0025,0.0014,-0.0008,-0.0011,-0.0001,-0.0034,-0.0039,-0.0041,-0.0086,-0.0093,-0.0064,-0.0066,-0.0129,-0.0135,-0.0141,-0.0145,-0.0169,-0.0171,-0.0173,-0.022,-0.022,-0.0219,0,0,0,0,0,0,0.0026,0.0024,-0.0006,0.0001,-0.0004,-0.0034,-0.0036,-0.0041,-0.0051,-0.009,-0.0098,-0.0067,-0.0129,-0.0137,-0.0156,-0.0148,-0.0172,-0.0175,-0.022,-0.022,-0.022,-0.0158,0,0,0,0,0,0,0.0027,0.0024,0.0029,0.0002,-0.0004,-0.0013,-0.0035,-0.0042,-0.0052,-0.0055,-0.0095,-0.0103,-0.013,-0.0151,-0.0158,-0.0152,-0.0177,-0.0221,-0.022,-0.022,-0.016,-0.0155,-0.0151,0,0,0,0,0,0.0028,0.0037,0.0029,0.0026,0.0002,-0.0012,-0.0017,-0.0041,-0.0051,-0.0052,-0.0077,-0.0102,-0.0154,-0.0153,-0.0161,-0.0156,-0.0221,-0.022,-0.022,-0.0162,-0.0156,-0.0151,0,0,0,0,0,0,0.0051,0.0033,0.0024,0.0027,0.0011,-0.0018,-0.0019,-0.0035,-0.0056,-0.0058,-0.0097,-0.0106,-0.0121,-0.0146,-0.0145,-0.0169,-0.0192,-0.0193,-0.0145,-0.014,-0.0136,-0.0122,-0.0179,0,0,0,0,0,0.006,0.0062,0.0039,0.0043,0.0037,0.0011,0.0003,-0.0013,-0.0035,-0.0044,-0.0072,-0.0101,-0.0125,-0.0138,-0.0163,-0.0174,-0.0201,-0.0177,-0.0173,-0.0169,-0.0163,-0.0198,-0.0196,-0.0218,-0.0218,-0.0218,0,0,0.007,0.0061,0.0062,0.0048,0.0034,0.0034,0.0005,-0.0002,-0.0003,-0.0049,-0.0056,-0.0086,-0.0124,-0.0137,-0.0146,-0.0157,-0.0176,-0.0168,-0.0164,-0.0161,-0.0197,-0.0195,-0.0194,-0.0217,-0.0217,-0.0217,0,0,0.0092,0.0084,0.0093,0.0084,0.007,0.0055,0.0056,0.003,0.0019,0.0008,-0.0025,-0.0047,-0.0083,-0.0108,-0.0125,-0.0112,-0.0151,-0.0122,-0.0087,-0.0122,-0.012,-0.0119,-0.0144,-0.0146,-0.0119,-0.0119,-0.0119,0,0.0106,0.0112,0.0093,0.0099,0.0099,0.0068,0.0078,0.0064,0.0036,0.0032,0.0014,-0.0037,-0.0069,-0.0086,-0.0081,-0.0101,-0.0125,-0.0102,-0.0115,-0.0115,-0.0115,-0.0141,-0.0144,-0.0116,-0.0117,-0.0117,-0.0117,0,0.013,0.0137,0.0143,0.0142,0.014,0.0144,0.0125,0.012,0.0103,0.0085,0.0065,0.0019,-0.0009,-0.0025,-0.0049,-0.0063,-0.0081,-0.0104,-0.0125,-0.0109,-0.0137,-0.0141,-0.0112,-0.0113,-0.0114,-0.0115,0,0,0.0153,0.0159,0.0162,0.0173,0.0165,0.0167,0.0172,0.0167,0.0175,0.0138,0.0139,0.0092,0.0066,0.0045,0.0007,-0.0024,-0.0044,-0.0058,-0.0061,-0.0076,-0.0113,-0.0117,-0.0122,-0.0071,-0.0071,-0.0071,-0.0131,0,0.0177,0.0203,0.0199,0.0227,0.0238,0.0224,0.0235,0.0227,0.0212,0.0205,0.0154,0.014,0.0093,0.0084,0.0045,-0.002,-0.0052,-0.0025,-0.0133,-0.0136,-0.0137,-0.0126,-0.0073,-0.0134,-0.0135,-0.0136,-0.0136,0,0.0199,0.0215,0.0247,0.0275,0.028,0.0294,0.0311,0.0317,0.0299,0.0285,0.0256,0.0219,0.0176,0.013,0.0028,0.0048,-0.0024,-0.0081,-0.0085,-0.0113,-0.0147,-0.0158,-0.0144,-0.0143,-0.0143,-0.0142,-0.0142,0,0.0222,0.0251,0.0281,0.0288,0.031,0.0328,0.0342,0.0342,0.0362,0.0338,0.0345,0.0279,0.0257,0.0157,0.0047,0.0037,-0.0071,-0.0102,-0.0176,-0.0177,-0.0183,-0.0184,-0.0179,-0.0179,-0.0178,-0.0178,-0.0178,0,0.0245,0.027,0.0296,0.0312,0.036,0.0364,0.0409,0.041,0.0425,0.0453,0.0391,0.0393,0.0263,0.0189,0.0071,-0.0055,-0.0054,-0.0165,-0.0192,-0.0155,-0.0152,-0.0186,-0.0185,-0.018,-0.018,-0.018,-0.0179,0,0.0259,0.0274,0.0314,0.0352,0.0371,0.0404,0.0463,0.0495,0.05,0.0533,0.0535,0.0485,0.0389,0.0253,0.0096,-0.001,-0.0141,-0.019,-0.0125,-0.0149,-0.0231,-0.0228,-0.0276,-0.0277,-0.0277,-0.0278,-0.0278,0,0.0265,0.0287,0.0345,0.0379,0.0399,0.0451,0.0493,0.0526,0.0563,0.0588,0.0607,0.0546,0.0487,0.0277,0.0117,-0.0102,-0.0143,-0.0216,-0.024,-0.0219,-0.0241,-0.0237,-0.0232,-0.0279,-0.0279,-0.0279,-0.0279,0,0.0279,0.0302,0.0336,0.0405,0.0458,0.0518,0.058,0.0618,0.0657,0.067,0.0674,0.0573,0.0467,0.0294,0.0129,-0.0036,-0.0171,-0.0222,-0.0223,-0.0246,-0.0224,-0.0244,-0.0239,-0.0281,-0.0281,-0.0281,-0.0281,0,0.0291,0.0316,0.0364,0.0425,0.0495,0.056,0.0595,0.0646,0.0689,0.072,0.0721,0.0607,0.0551,0.0328,0.0172,0.0017,-0.0038,-0.011,-0.0117,-0.0117,-0.0062,-0.001,-0.0019,0,0,0,0,0,0.0296,0.0322,0.0381,0.0445,0.0518,0.0556,0.0642,0.0674,0.0719,0.0733,0.0733,0.0635,0.0427,0.0344,0.0189,0.0132,-0.0085,-0.006,-0.0177,-0.0291,-0.0289,-0.0253,0,0,0,0,0,0,0.0297,0.0346,0.0372,0.045,0.0495,0.0574,0.0628,0.0664,0.0676,0.0705,0.0608,0.0572,0.0377,0.0515,0.0178,0.0132,0.003,-0.0149,-0.0153,-0.0292,-0.029,-0.0289,-0.0251,0,0,0,0,0]}]]